Regional Weather Roundup
Issued by NWS

Home | Current Version | Previous Version | Graphics & Text | Print | Product List | Glossary Off
Versions: 1 2 3 4 5 6 7 8 9 10 11 12 13 14 15 16 17 18 19 20 21 22 23 24 25 26 27 28 29 30 31 32 33 34 35 36 37 38 39 40 41 42 43 44 45 46 47 48 49 50

000
ASUS43 KDTX 010610
RWRMI
MICHIGAN HOURLY REGIONAL WEATHER ROUNDUP
NATIONAL WEATHER SERVICE DETROIT/PONTIAC MI
200 AM EDT MON SEP 01 2014

NOTE: "FAIR" INDICATES FEW OR NO CLOUDS BELOW 12,000 FEET WITH NO
SIGNIFICANT WEATHER AND/OR OBSTRUCTION TO VISIBILITY.

MIZ047>049-052>055-059>063-066>070-074>076-081>083-010700-
SOUTHEAST LOWER MICHIGAN

CITY           SKY/WX    TMP DP  RH WIND       PRES   REMARKS
ADRIAN           N/A     69  67  93 SW5       29.96R
6HR MIN TEMP:  68; 6HR MAX TEMP:  78;

ALMA           FOG       59  58  97 CALM      29.92S VSB 1/4
BAD AXE          N/A     67  67 100 SE3       29.92S
6HR MIN TEMP:  67; 6HR MAX TEMP:  73;

DETROIT CITY     N/A     76  70  82 SW7       29.94R
6HR MIN TEMP:  76; 6HR MAX TEMP:  80;

DETROIT        MOCLDY    72  69  90 S5        29.95R
6HR MIN TEMP:  72; 6HR MAX TEMP:  77;

FLINT            N/A     71  65  81 SW5       29.93R
6HR MIN TEMP:  70; 6HR MAX TEMP:  80;

GROSSE ILE     MOCLDY    75  72  88 SW6       29.93S
HILLSDALE        N/A     70  70 100 SW5       29.97R FOG
6HR MIN TEMP:  67; 6HR MAX TEMP:  78;

HOWELL           N/A     68  67  96 S3        29.94S
6HR MIN TEMP:  67; 6HR MAX TEMP:  74;


CITY           SKY/WX    TMP DP  RH WIND       PRES   REMARKS
JACKSON          N/A     68  66  93 CALM      29.95R
6HR MIN TEMP:  67; 6HR MAX TEMP:  77;

LAMBERTVILLE     N/A     72  68  88 S3        29.96R
LANSING          N/A     66  64  93 CALM      29.93S
6HR MIN TEMP:  65; 6HR MAX TEMP:  72;

LAPEER         NOT AVBL
MASON            N/A     66  64  94 CALM      29.94S
MONROE           N/A     72  70  94 SW3       29.94R
MT. CLEMENS      N/A     71  68  89 SW5       29.92R
6HR MIN TEMP:  70; 6HR MAX TEMP:  76;

PONTIAC          N/A     71  67  87 CALM      29.94R
6HR MIN TEMP:  71; 6HR MAX TEMP:  80;

PORT HOPE        N/A     68  65  90 SE3       29.91R
6HR MIN TEMP:  67; 6HR MAX TEMP:  70;

PORT HURON       N/A     66  66 100 CALM      29.93S FOG
TRI CITIES       N/A     68  66  93 SW6       29.92R
6HR MIN TEMP:  68; 6HR MAX TEMP:  77;

YPSILANTI        N/A     75  68  78 SW6       29.95R
6HR MIN TEMP:  73; 6HR MAX TEMP:  81; 6HR PCP:  0.03;

$$
MIZ043>046-050>051-056>058-064>065-071>073-077>080-010700-
SOUTHWEST LOWER MICHIGAN

CITY           SKY/WX    TMP DP  RH WIND       PRES   REMARKS
BATTLE CREEK     N/A     69  66  90 S6        29.94R
6HR MIN TEMP:  68; 6HR MAX TEMP:  79; 6HR PCP:  0.14;

BENTON HARBOR    N/A     71  68  90 S7        29.89F
6HR MIN TEMP:  66; 6HR MAX TEMP:  76;

BIG RAPIDS       N/A     61  61 100 CALM      29.91R
6HR MIN TEMP:  60; 6HR MAX TEMP:  72;

COLDWATER        N/A     73  70  93 S5        29.95R
6HR MIN TEMP:  69; 6HR MAX TEMP:  76;

HOLLAND          N/A     70  67  90 SE7       29.90S
6HR MIN TEMP:  68; 6HR MAX TEMP:  77;

GRAND RAPIDS     N/A     68  68 100 S7        29.91S
6HR MIN TEMP:  67; 6HR MAX TEMP:  77;

KALAMAZOO        N/A     70  67  90 S6        29.92S
6HR MIN TEMP:  68; 6HR MAX TEMP:  78;

MARSHALL         N/A     67  66  97 CALM      29.94R
MUSKEGON         N/A     71  66  84 SE8       29.88F
6HR MIN TEMP:  70; 6HR MAX TEMP:  75;

$$
MIZ016>042-010700-
NORTHERN LOWER MICHIGAN

CITY           SKY/WX    TMP DP  RH WIND       PRES   REMARKS
ALPENA         MOCLDY    60  59  96 SE6       29.92R
6HR MIN TEMP:  58; 6HR MAX TEMP:  65;

BEAVER ISLAND    N/A     64  63  97 SE5       29.86F
6HR MIN TEMP:  59; 6HR MAX TEMP:  64;

BELLAIRE         N/A     58  57  96 CALM      29.88S FOG
6HR MIN TEMP:  58; 6HR MAX TEMP:  67;

CADILLAC         N/A     65  64  94 S5        29.91S
CHARLEVOIX       N/A     64  64  99 SE5       29.91S
6HR MIN TEMP:  62; 6HR MAX TEMP:  66;

FRANKFORT        N/A     71  64  77 SE7       29.85F
GAYLORD          N/A     63  61  93 S7        29.92R
6HR MIN TEMP:  60; 6HR MAX TEMP:  68;

GRAYLING         N/A     62  62 100 CALM      29.93S
6HR MIN TEMP:  56; 6HR MAX TEMP:  69;

HARBOR SPRINGS   N/A     62  60  93 NE3       29.89R
HOUGHTON LAKE    N/A     63  62  97 SE7       29.93R
6HR MIN TEMP:  61; 6HR MAX TEMP:  72;

MANISTEE         N/A     66  63  88 SE5       29.87S
OSCODA           N/A     62  61  99 CALM      29.90S FOG
PELLSTON         N/A     57  57 100 CALM      29.90R
6HR MIN TEMP:  57; 6HR MAX TEMP:  67;

TRAVERSE CITY    N/A     66  62  87 CALM      29.87R
6HR MIN TEMP:  63; 6HR MAX TEMP:  69;

$$
MIZ007>008-015-010700-
EASTERN UPPER MICHIGAN

CITY           SKY/WX    TMP DP  RH WIND       PRES   REMARKS
KINROSS        CLOUDY    59  57  94 SE8       29.90R VSB 1
6HR MIN TEMP:  57; 6HR MAX TEMP:  66;

MACKINAC ISLAN   N/A     62  61  99 SE10      29.88S
6HR MIN TEMP:  58; 6HR MAX TEMP:  62; 6HR PCP:  0.01;

NEWBERRY       MOCLDY    59  59  99 SE7       29.85F
S. S. MARIE    CLOUDY    60  58  92 SE7       29.90R FOG
6HR MIN TEMP:  59; 6HR MAX TEMP:  68;

$$
MIZ004>006-011>014-085-010700-
CENTRAL UPPER MICHIGAN

CITY           SKY/WX    TMP DP  RH WIND       PRES   REMARKS
MANISTIQUE     MOCLDY    63  63  99 SE7       29.83F
ESCANABA         N/A     64  61  88 SE6       29.80F
6HR MIN TEMP:  63; 6HR MAX TEMP:  64;

MENOMINEE        N/A     66  63  88 SE6       29.78F
6HR MIN TEMP:  64; 6HR MAX TEMP:  66;

SAWYER-GWINN   CLOUDY    63  62  97 S14       29.79F FOG
6HR MIN TEMP:  62; 6HR MAX TEMP:  64;

$$
MIZ001>003-009>011-084-010700-
WESTERN UPPER MICHIGAN

CITY           SKY/WX    TMP DP  RH WIND       PRES   REMARKS
IRON MOUNTAIN  CLOUDY    64  63  96 SE6       29.77F FOG
6HR MIN TEMP:  63; 6HR MAX TEMP:  65;

HOUGHTON       CLOUDY    66  62  87 S7        29.69F
6HR MIN TEMP:  62; 6HR MAX TEMP:  66;

COPPER HARBOR    N/A     65  60  84 SW14G23   29.67F
6HR MIN TEMP:  62; 6HR MAX TEMP:  65;

$$

ABBREVIATIONS USED IN REMARKS
   TC - TEMPERATURE IN CELSIUS
  WCI - WIND CHILL INDEX
   HX - HEAT INDEX
  VSB - VISIBILITY




USA.gov is the U.S. government's official web portal to all federal, state and local government web resources and services.